Voltar ao catálogo

DELTA 1 DEB

AtivoSSO
NORAD 7045·DEBRIS·🇺🇸 United States

Lançado Nov 6, 1973 de Vandenberg Space Force Base

Loading…

Próximas Passagens (próximas 24 horas)

TLE

AtualizadoSource: Space-Track

Época: Sep 13, 2026, 07:16 UTC

1  7045U 73086AM  26256.30344911 -.00000020  00000-0  23431-3 0  9995
2  7045 102.5955 276.1164 0076998 190.9899 182.4336 12.26156258358311

Acompanhe DELTA 1 DEB em tempo real com AllMySat

Download on the App Store